| time (UTC) | temp C | wind direction | speed KPH | gust KPH | rain 1hr cm | rain 24hr cm | rain mn cm | humidity % | barometer mb |
| 20260905224536 | 36 | 0 | 0.0 | 0.0 | 0.00 | 0.30 | 0.30 | 57 | 1012.2 |
| 20260905223041 | 37 | 0 | 0.0 | 0.0 | 0.00 | 0.30 | 0.30 | 56 | 1012.3 |
| 20260905221534 | 38 | 0 | 0.0 | 0.0 | 0.00 | 0.30 | 0.30 | 52 | 1012.3 |
| 20260905220037 | 38 | 0 | 0.0 | 0.0 | 0.00 | 0.30 | 0.30 | 54 | 1012.1 |
| 20260905214539 | 38 | 0 | 0.0 | 0.0 | 0.00 | 0.30 | 0.30 | 53 | 1012.4 |
| 20260905213037 | 38 | 0 | 0.0 | 0.0 | 0.00 | 0.30 | 0.30 | 55 | 1012.4 |
| 20260905211539 | 38 | 0 | 0.0 | 0.0 | 0.00 | 0.30 | 0.30 | 52 | 1012.4 |
| 20260905210047 | 38 | 0 | 0.0 | 0.0 | 0.00 | 0.30 | 0.30 | 51 | 1012.5 |
| 20260905204535 | 38 | 0 | 0.0 | 0.0 | 0.00 | 0.30 | 0.30 | 55 | 1012.5 |
| 20260905203049 | 38 | 0 | 0.0 | 0.0 | 0.00 | 0.30 | 0.30 | 53 | 1012.7 |
| 20260905201535 | 37 | 0 | 0.0 | 0.0 | 0.00 | 0.30 | 0.30 | 54 | 1012.9 |
| 20260905200037 | 37 | 0 | 0.0 | 0.0 | 0.00 | 0.30 | 0.30 | 55 | 1013.1 |
| 20260905194535 | 37 | 0 | 0.0 | 0.0 | 0.00 | 0.30 | 0.30 | 56 | 1013.4 |
| 20260905193036 | 36 | 0 | 0.0 | 0.0 | 0.00 | 0.30 | 0.30 | 55 | 1013.6 |
| 20260905191539 | 36 | 0 | 0.0 | 0.0 | 0.00 | 0.30 | 0.30 | 56 | 1013.7 |
| 20260905190035 | 35 | 0 | 0.0 | 0.0 | 0.00 | 0.30 | 0.30 | 58 | 1013.9 |
| 20260905184545 | 35 | 0 | 0.0 | 0.0 | 0.00 | 0.30 | 0.30 | 58 | 1014.0 |
| 20260905183033 | 33 | 0 | 0.0 | 0.0 | 0.00 | 0.30 | 0.30 | 60 | 1014.3 |
| 20260905181540 | 33 | 0 | 0.0 | 0.0 | 0.00 | 0.30 | 0.30 | 62 | 1014.6 |
| 20260905180038 | 31 | 0 | 0.0 | 0.0 | 0.00 | 0.30 | 0.30 | 63 | 1014.6 |
| 20260905174537 | 30 | 0 | 0.0 | 0.0 | 0.00 | 0.30 | 0.30 | 63 | 1014.8 |
| 20260905173037 | 29 | 0 | 0.0 | 0.0 | 0.00 | 0.30 | 0.30 | 60 | 1014.7 |
| 20260905171550 | 28 | 0 | 0.0 | 0.0 | 0.00 | 0.30 | 0.30 | 52 | 1014.9 |
| 20260905170033 | 27 | 0 | 0.0 | 0.0 | 0.00 | 0.30 | 0.30 | 44 | 1015.2 |
| 20260905164544 | 27 | 0 | 0.0 | 0.0 | 0.00 | 0.30 | 0.30 | 11 | 1015.4 |
| 20260905163041 | 26 | 0 | 0.0 | 0.0 | 0.00 | 0.30 | 0.30 | 100 | 1015.5 |
| 20260905161537 | 26 | 0 | 0.0 | 0.0 | 0.00 | 0.30 | 0.30 | 100 | 1015.3 |
| 20260905160038 | 25 | 0 | 0.0 | 0.0 | 0.00 | 0.30 | 0.30 | 100 | 1015.4 |
| 20260905154540 | 24 | 0 | 0.0 | 0.0 | 0.00 | 0.30 | 0.30 | 100 | 1015.4 |
| 20260905153033 | 24 | 0 | 0.0 | 0.0 | 0.00 | 0.30 | 0.30 | 100 | 1015.6 |
| 20260905151540 | 23 | 0 | 0.0 | 0.0 | 0.00 | 0.30 | 0.30 | 100 | 1015.9 |
| 20260905150045 | 23 | 0 | 0.0 | 0.0 | 0.00 | 0.30 | 0.30 | 100 | 1015.8 |
| 20260905144538 | 23 | 0 | 0.0 | 0.0 | 0.00 | 0.30 | 0.30 | 100 | 1016.0 |
| 20260905143038 | 23 | 0 | 0.0 | 0.0 | 0.00 | 0.30 | 0.30 | 100 | 1016.1 |
| 20260905141536 | 22 | 0 | 0.0 | 0.0 | 0.00 | 0.30 | 0.30 | 100 | 1016.3 |
| 20260905140037 | 22 | 0 | 0.0 | 0.0 | 0.00 | 0.30 | 0.30 | 100 | 1016.5 |
| 20260905134536 | 22 | 0 | 0.0 | 0.0 | 0.00 | 0.30 | 0.30 | 100 | 1016.4 |
| 20260905133033 | 22 | 0 | 0.0 | 0.0 | 0.03 | 0.30 | 0.30 | 100 | 1016.4 |
| 20260905131538 | 22 | 0 | 0.0 | 0.0 | 0.03 | 0.30 | 0.30 | 100 | 1016.2 |
| 20260905130034 | 22 | 0 | 0.0 | 0.0 | 0.30 | 0.30 | 0.30 | 100 | 1016.2 |
| 20260905124537 | 23 | 0 | 0.0 | 0.0 | 0.30 | 0.30 | 0.30 | 100 | 1016.3 |
| 20260905123039 | 23 | 0 | 0.0 | 0.0 | 0.28 | 0.28 | 0.28 | 100 | 1015.8 |
| 20260905121539 | 23 | 0 | 0.0 | 0.0 | 0.28 | 0.28 | 0.28 | 100 | 1015.9 |
| 20260905120041 | 23 | 0 | 0.0 | 0.0 | 0.00 | 0.00 | 0.00 | 100 | 1016.3 |
| 20260905114535 | 24 | 0 | 0.0 | 0.0 | 0.00 | 0.00 | 0.00 | 100 | 1015.5 |
| 20260905113037 | 24 | 0 | 0.0 | 0.0 | 0.00 | 0.00 | 0.00 | 100 | 1015.5 |
| 20260905111545 | 24 | 0 | 0.0 | 0.0 | 0.00 | 0.00 | 0.00 | 100 | 1015.2 |
| 20260905110039 | 25 | 0 | 0.0 | 0.0 | 0.00 | 0.00 | 0.00 | 100 | 1014.8 |
| 20260905104551 | 25 | 0 | 0.0 | 0.0 | 0.00 | 0.00 | 0.00 | 100 | 1014.8 |
| 20260905103039 | 25 | 0 | 0.0 | 0.0 | 0.00 | 0.00 | 0.00 | 100 | 1014.3 |
| 20260905101535 | 25 | 0 | 0.0 | 0.0 | 0.00 | 0.00 | 0.00 | 100 | 1014.2 |
| 20260905100036 | 25 | 0 | 0.0 | 0.0 | 0.00 | 0.00 | 0.00 | 100 | 1014.4 |
| 20260905094619 | 25 | 0 | 0.0 | 0.0 | 0.00 | 0.00 | 0.00 | 100 | 1014.4 |
| 20260905093037 | 25 | 0 | 0.0 | 0.0 | 0.00 | 0.00 | 0.00 | 100 | 1014.2 |
| 20260905091534 | 25 | 0 | 0.0 | 0.0 | 0.00 | 0.00 | 0.00 | 100 | 1013.8 |
| 20260905090037 | 25 | 0 | 0.0 | 0.0 | 0.00 | 0.00 | 0.00 | 100 | 1013.9 |
| 20260905084553 | 25 | 0 | 0.0 | 0.0 | 0.00 | 0.00 | 0.00 | 100 | 1014.0 |
| 20260905083035 | 26 | 0 | 0.0 | 0.0 | 0.00 | 0.00 | 0.00 | 100 | 1013.8 |
| 20260905081541 | 26 | 0 | 0.0 | 0.0 | 0.00 | 0.00 | 0.00 | 100 | 1013.7 |
| 20260905080035 | 26 | 0 | 0.0 | 0.0 | 0.00 | 0.00 | 0.00 | 100 | 1013.6 |
| 20260905074534 | 26 | 0 | 0.0 | 0.0 | 0.00 | 0.00 | 0.00 | 100 | 1013.8 |
| 20260905073038 | 26 | 0 | 0.0 | 0.0 | 0.00 | 0.00 | 0.00 | 100 | 1013.9 |
| 20260905071539 | 26 | 0 | 0.0 | 0.0 | 0.00 | 0.00 | 0.00 | 100 | 1014.0 |
| 20260905070037 | 26 | 0 | 0.0 | 0.0 | 0.00 | 0.00 | 0.00 | 100 | 1014.1 |
| 20260905064536 | 26 | 0 | 0.0 | 0.0 | 0.00 | 0.00 | 0.00 | 100 | 1014.2 |
| 20260905063036 | 26 | 0 | 0.0 | 0.0 | 0.00 | 0.00 | 0.00 | 100 | 1014.4 |
| 20260905061554 | 26 | 0 | 0.0 | 0.0 | 0.00 | 0.00 | 0.00 | 100 | 1014.5 |
| 20260905060057 | 26 | 0 | 0.0 | 0.0 | 0.00 | 0.00 | 0.00 | 100 | 1014.9 |
| 20260905054545 | 27 | 0 | 0.0 | 0.0 | 0.00 | 0.00 | 0.00 | 100 | 1014.8 |
| 20260905053037 | 27 | 0 | 0.0 | 0.0 | 0.00 | 0.00 | 0.00 | 100 | 1014.9 |
| 20260905051539 | 27 | 0 | 0.0 | 0.0 | 0.00 | 0.00 | 0.00 | 100 | 1015.2 |
| 20260905050035 | 27 | 0 | 0.0 | 0.0 | 0.00 | 0.00 | 0.00 | 100 | 1015.3 |
| 20260905044535 | 27 | 0 | 0.0 | 0.0 | 0.00 | 0.00 | 0.00 | 100 | 1015.1 |
| 20260905043035 | 27 | 0 | 0.0 | 0.0 | 0.00 | 0.00 | 0.00 | 100 | 1015.2 |
| 20260905041539 | 27 | 0 | 0.0 | 0.0 | 0.00 | 0.00 | 0.00 | 1 | 1015.2 |
| 20260905040035 | 28 | 0 | 0.0 | 0.0 | 0.00 | 0.00 | 0.00 | 6 | 1015.2 |
| 20260905034538 | 28 | 0 | 0.0 | 0.0 | 0.00 | 0.00 | 0.00 | 15 | 1015.2 |
| 20260905033036 | 28 | 0 | 0.0 | 0.0 | 0.00 | 0.00 | 0.00 | 20 | 1015.3 |
| 20260905031545 | 28 | 0 | 0.0 | 0.0 | 0.00 | 0.00 | 0.00 | 29 | 1015.3 |
| 20260905030035 | 29 | 0 | 0.0 | 0.0 | 0.00 | 0.00 | 0.00 | 37 | 1015.5 |
| 20260905024555 | 29 | 0 | 0.0 | 0.0 | 0.00 | 0.00 | 0.00 | 43 | 1015.4 |
| 20260905023035 | 30 | 0 | 0.0 | 0.0 | 0.00 | 0.00 | 0.00 | 45 | 1015.4 |
| 20260905021533 | 30 | 0 | 0.0 | 0.0 | 0.00 | 0.00 | 0.00 | 48 | 1015.4 |
| 20260905020036 | 30 | 0 | 0.0 | 0.0 | 0.00 | 0.00 | 0.00 | 54 | 1015.3 |
| 20260905014534 | 31 | 0 | 0.0 | 0.0 | 0.00 | 0.00 | 0.00 | 56 | 1015.3 |
| 20260905013054 | 31 | 0 | 0.0 | 0.0 | 0.00 | 0.00 | 0.00 | 57 | 1014.9 |
| 20260905011536 | 32 | 0 | 0.0 | 0.0 | 0.00 | 0.00 | 0.00 | 59 | 1014.7 |
| 20260905010035 | 33 | 0 | 0.0 | 0.0 | 0.00 | 0.00 | 0.00 | 61 | 1014.6 |
| 20260905004537 | 34 | 0 | 0.0 | 0.0 | 0.00 | 0.00 | 0.00 | 62 | 1014.5 |
| 20260905003039 | 35 | 0 | 0.0 | 0.0 | 0.00 | 0.00 | 0.00 | 62 | 1014.5 |
| 20260905001537 | 36 | 0 | 0.0 | 0.0 | 0.00 | 0.00 | 0.00 | 61 | 1014.3 |
| 20260905000037 | 37 | 0 | 0.0 | 0.0 | 0.00 | 0.00 | 0.00 | 61 | 1014.1 |
| 20260904234540 | 38 | 0 | 0.0 | 0.0 | 0.00 | 0.00 | 0.00 | 60 | 1014.3 |
| 20260904233038 | 38 | 0 | 0.0 | 0.0 | 0.00 | 0.00 | 0.00 | 54 | 1014.5 |
| 20260904231538 | 39 | 0 | 0.0 | 0.0 | 0.00 | 0.00 | 0.00 | 54 | 1014.6 |
| 20260904230050 | 40 | 0 | 0.0 | 0.0 | 0.00 | 0.00 | 0.00 | 56 | 1014.7 |